SVA1506 OEDF-OERK

Flight info

Callsign SVA1506
Flight time 0h 44m
Altitude 28000
Route EMUSA2E EMUSA Q212 ETBAS ETBAS1A
Aircraft A320/M-SDE3FGHIRWY/LB1

Departure

Time 2026-04-15 11:58
Airport King Fahd International Airport (OEDF)

Arrival

Time 2026-04-15 12:42
Airport King Khalid International Airport (OERK)
Time Latitude Longitude Altitude Speed Heading
2026-04-15 11:46 26.47148 49.79358 85 ft 0 kts 63°
2026-04-15 11:47 26.47149 49.79359 85 ft 1 kts 63°
2026-04-15 11:47 26.47141 49.79343 85 ft 2 kts 63°
2026-04-15 11:48 26.47134 49.79326 85 ft 2 kts 63°
2026-04-15 11:48 26.47126 49.79310 85 ft 2 kts 94°
2026-04-15 11:48 26.47125 49.79292 85 ft 2 kts 43°
2026-04-15 11:48 26.47117 49.79280 86 ft 0 kts 100°
2026-04-15 11:49 26.47117 49.79281 86 ft 0 kts 102°
2026-04-15 11:49 26.47115 49.79282 85 ft 1 kts 124°
2026-04-15 11:50 26.47097 49.79293 85 ft 6 kts 150°
2026-04-15 11:50 26.47060 49.79310 85 ft 6 kts 156°
2026-04-15 11:50 26.47020 49.79331 85 ft 6 kts 155°
2026-04-15 11:50 26.46979 49.79353 87 ft 7 kts 153°
2026-04-15 11:51 26.46934 49.79379 89 ft 7 kts 153°
2026-04-15 11:51 26.46886 49.79404 85 ft 8 kts 158°
2026-04-15 11:51 26.46833 49.79423 88 ft 8 kts 164°
2026-04-15 11:51 26.46778 49.79441 85 ft 9 kts 164°
2026-04-15 11:52 26.46718 49.79459 88 ft 9 kts 165°
2026-04-15 11:52 26.46655 49.79478 85 ft 10 kts 167°
2026-04-15 11:52 26.46587 49.79488 87 ft 10 kts 177°
2026-04-15 11:52 26.46514 49.79494 88 ft 11 kts 175°
2026-04-15 11:53 26.46438 49.79502 86 ft 12 kts 174°
2026-04-15 11:53 26.46355 49.79508 87 ft 12 kts 176°
2026-04-15 11:53 26.46268 49.79515 88 ft 13 kts 175°
2026-04-15 11:53 26.46177 49.79524 87 ft 14 kts 175°
2026-04-15 11:54 26.46083 49.79546 86 ft 14 kts 163°
2026-04-15 11:54 26.45987 49.79571 87 ft 14 kts 182°
2026-04-15 11:54 26.45936 49.79508 85 ft 11 kts 251°
2026-04-15 11:54 26.45911 49.79422 86 ft 10 kts 243°
2026-04-15 11:55 26.45850 49.79393 89 ft 10 kts 171°
2026-04-15 11:55 26.45778 49.79414 88 ft 11 kts 164°
2026-04-15 11:55 26.45703 49.79438 86 ft 12 kts 164°
2026-04-15 11:55 26.45626 49.79433 85 ft 11 kts 216°
2026-04-15 11:56 26.45599 49.79363 89 ft 10 kts 253°
2026-04-15 11:56 26.45578 49.79281 86 ft 12 kts 255°
2026-04-15 11:56 26.45564 49.79178 88 ft 12 kts 295°
2026-04-15 11:56 26.45628 49.79135 88 ft 0 kts 343°
2026-04-15 11:57 26.45739 49.79100 87 ft 62 kts 345°
2026-04-15 11:57 26.46487 49.78865 90 ft 152 kts 345°
2026-04-15 11:58 26.47763 49.78482 304 ft 219 kts 347°
2026-04-15 11:58 26.49261 49.78066 1679 ft 229 kts 344°
2026-04-15 11:58 26.50874 49.77610 3195 ft 246 kts 344°
2026-04-15 11:58 26.52574 49.77154 4860 ft 259 kts 345°
2026-04-15 11:59 26.54408 49.76678 6280 ft 286 kts 345°
2026-04-15 11:59 26.56470 49.76128 7257 ft 322 kts 344°
2026-04-15 11:59 26.58678 49.75234 7816 ft 355 kts 330°
2026-04-15 11:59 26.60389 49.73435 8174 ft 322 kts 304°
2026-04-15 12:00 26.60982 49.71194 8682 ft 291 kts 273°
2026-04-15 12:00 26.60414 49.69049 9314 ft 296 kts 240°
2026-04-15 12:00 26.59166 49.67201 9956 ft 299 kts 239°
2026-04-15 12:00 26.58455 49.65051 10540 ft 310 kts 267°
2026-04-15 12:01 26.58581 49.62613 11145 ft 318 kts 283°
2026-04-15 12:01 26.59132 49.60207 11753 ft 322 kts 289°
2026-04-15 12:01 26.59823 49.57815 12375 ft 324 kts 290°
2026-04-15 12:01 26.60471 49.55396 13005 ft 328 kts 284°
2026-04-15 12:02 26.60655 49.52834 13652 ft 335 kts 268°
2026-04-15 12:02 26.60138 49.50285 14243 ft 340 kts 250°
2026-04-15 12:02 26.58977 49.47965 14830 ft 346 kts 236°
2026-04-15 12:02 26.57572 49.45774 15427 ft 349 kts 237°
2026-04-15 12:03 26.56173 49.43545 16040 ft 352 kts 238°
2026-04-15 12:03 26.54775 49.41283 16660 ft 356 kts 238°
2026-04-15 12:03 26.53369 49.38991 17298 ft 359 kts 238°
2026-04-15 12:03 26.51952 49.36679 18126 ft 363 kts 238°
2026-04-15 12:04 26.50514 49.34333 18911 ft 368 kts 238°
2026-04-15 12:04 26.49057 49.31960 19683 ft 373 kts 239°
2026-04-15 12:04 26.47646 49.29509 20475 ft 377 kts 242°
2026-04-15 12:04 26.46314 49.26974 21293 ft 380 kts 244°
2026-04-15 12:05 26.45456 49.25266 21849 ft 382 kts 245°
2026-04-15 12:05 26.44175 49.22656 22704 ft 385 kts 246°
2026-04-15 12:05 26.42461 49.19163 23825 ft 388 kts 246°
2026-04-15 12:05 26.41574 49.17378 24328 ft 390 kts 245°
2026-04-15 12:06 26.39808 49.13877 25344 ft 392 kts 245°
2026-04-15 12:06 26.38896 49.12088 25876 ft 393 kts 245°
2026-04-15 12:06 26.37538 49.09446 26679 ft 393 kts 244°
2026-04-15 12:06 26.36193 49.06834 27482 ft 393 kts 245°
2026-04-15 12:07 26.34815 49.04153 27873 ft 405 kts 245°
2026-04-15 12:07 26.33402 49.01392 28004 ft 410 kts 245°
2026-04-15 12:07 26.32014 48.98694 28026 ft 391 kts 245°
2026-04-15 12:07 26.30681 48.96116 28029 ft 379 kts 245°
2026-04-15 12:08 26.29381 48.93583 28028 ft 375 kts 245°
2026-04-15 12:08 26.26800 48.88551 28032 ft 373 kts 245°
2026-04-15 12:09 26.24222 48.83536 28028 ft 373 kts 245°
2026-04-15 12:09 26.21640 48.78513 28033 ft 373 kts 245°
2026-04-15 12:10 26.19104 48.73474 28034 ft 370 kts 251°
2026-04-15 12:10 26.17837 48.68086 28033 ft 360 kts 266°
2026-04-15 12:11 26.17143 48.62571 28024 ft 360 kts 267°
2026-04-15 12:11 26.16438 48.57053 28020 ft 360 kts 267°
2026-04-15 12:12 26.15723 48.51527 28021 ft 360 kts 267°
2026-04-15 12:12 26.15008 48.45998 28021 ft 360 kts 267°
2026-04-15 12:13 26.14294 48.40473 28017 ft 360 kts 267°
2026-04-15 12:13 26.13578 48.34944 28026 ft 360 kts 267°
2026-04-15 12:14 26.12859 48.29427 28026 ft 360 kts 267°
2026-04-15 12:14 26.12140 48.23946 28027 ft 360 kts 267°
2026-04-15 12:15 26.11094 48.18481 28025 ft 368 kts 253°
2026-04-15 12:15 26.09883 48.15947 28028 ft 376 kts 241°
2026-04-15 12:15 26.08173 48.13711 28033 ft 382 kts 232°
2026-04-15 12:16 26.04492 48.09446 28036 ft 382 kts 232°
2026-04-15 12:16 26.00826 48.05160 28033 ft 382 kts 232°
2026-04-15 12:17 25.97171 48.00879 28032 ft 382 kts 232°
2026-04-15 12:17 25.93537 47.96630 28038 ft 381 kts 232°
2026-04-15 12:18 25.89875 47.92372 28039 ft 381 kts 232°
2026-04-15 12:18 25.86218 47.88117 28041 ft 381 kts 232°
2026-04-15 12:19 25.82558 47.83860 28036 ft 381 kts 233°
2026-04-15 12:19 25.78899 47.79604 28041 ft 381 kts 232°
2026-04-15 12:20 25.76801 47.77169 28032 ft 381 kts 232°
2026-04-15 12:20 25.74962 47.75040 28024 ft 381 kts 232°
2026-04-15 12:20 25.73133 47.72924 27565 ft 380 kts 232°
2026-04-15 12:21 25.71298 47.70800 26855 ft 383 kts 232°
2026-04-15 12:21 25.69457 47.68664 26272 ft 382 kts 232°
2026-04-15 12:21 25.67625 47.66542 25715 ft 378 kts 231°
2026-04-15 12:21 25.65820 47.64456 24805 ft 374 kts 231°
2026-04-15 12:22 25.64023 47.62381 23928 ft 372 kts 231°
2026-04-15 12:22 25.62237 47.60317 22959 ft 369 kts 230°
2026-04-15 12:22 25.60471 47.58275 22255 ft 365 kts 230°
2026-04-15 12:22 25.58714 47.56244 22045 ft 364 kts 230°
2026-04-15 12:23 25.56976 47.54214 21970 ft 363 kts 231°
2026-04-15 12:23 25.55272 47.52146 21803 ft 363 kts 232°
2026-04-15 12:23 25.53599 47.50066 21556 ft 361 kts 232°
2026-04-15 12:23 25.51946 47.47990 21307 ft 359 kts 232°
2026-04-15 12:24 25.50299 47.45924 21062 ft 357 kts 232°
2026-04-15 12:24 25.48658 47.43875 20817 ft 355 kts 232°
2026-04-15 12:24 25.47013 47.41833 20571 ft 355 kts 231°
2026-04-15 12:24 25.45393 47.39831 20327 ft 352 kts 231°
2026-04-15 12:25 25.43762 47.37824 20089 ft 349 kts 231°
2026-04-15 12:25 25.42149 47.35844 19645 ft 342 kts 231°
2026-04-15 12:25 25.40568 47.33902 18853 ft 338 kts 231°
2026-04-15 12:25 25.39000 47.31972 18298 ft 337 kts 231°
2026-04-15 12:26 25.37443 47.30055 17873 ft 333 kts 231°
2026-04-15 12:26 25.35905 47.28162 17443 ft 330 kts 231°
2026-04-15 12:26 25.34378 47.26284 17015 ft 327 kts 231°
2026-04-15 12:26 25.32862 47.24418 16587 ft 324 kts 231°
2026-04-15 12:27 25.31362 47.22574 16188 ft 322 kts 231°
2026-04-15 12:27 25.29870 47.20742 15792 ft 319 kts 231°
2026-04-15 12:27 25.28392 47.18929 15404 ft 317 kts 231°
2026-04-15 12:27 25.26924 47.17125 15023 ft 314 kts 231°
2026-04-15 12:28 25.25471 47.15340 14662 ft 311 kts 231°
2026-04-15 12:28 25.24031 47.13572 14298 ft 308 kts 231°
2026-04-15 12:28 25.22608 47.11825 13796 ft 304 kts 231°
2026-04-15 12:28 25.21200 47.10095 13141 ft 301 kts 231°
2026-04-15 12:29 25.19802 47.08382 12477 ft 300 kts 231°
2026-04-15 12:29 25.18403 47.06673 12094 ft 300 kts 231°
2026-04-15 12:29 25.17004 47.04963 12001 ft 301 kts 231°
2026-04-15 12:29 25.15601 47.03245 12012 ft 302 kts 231°
2026-04-15 12:30 25.14194 47.01521 12011 ft 302 kts 231°
2026-04-15 12:30 25.12788 46.99800 12015 ft 302 kts 231°
2026-04-15 12:30 25.11377 46.98074 12011 ft 302 kts 231°
2026-04-15 12:30 25.09974 46.96356 12008 ft 301 kts 231°
2026-04-15 12:31 25.08572 46.94641 12014 ft 300 kts 231°
2026-04-15 12:31 25.07376 46.92793 11767 ft 292 kts 245°
2026-04-15 12:31 25.06710 46.90731 11129 ft 288 kts 261°
2026-04-15 12:31 25.06592 46.88551 10478 ft 284 kts 276°
2026-04-15 12:32 25.06988 46.86440 9830 ft 276 kts 291°
2026-04-15 12:32 25.07688 46.84579 9696 ft 250 kts 294°
2026-04-15 12:32 25.08324 46.82854 9335 ft 238 kts 293°
2026-04-15 12:32 25.08934 46.81177 8800 ft 234 kts 292°
2026-04-15 12:33 25.09539 46.79513 8222 ft 233 kts 292°
2026-04-15 12:33 25.10145 46.77850 7640 ft 233 kts 292°
2026-04-15 12:33 25.10750 46.76197 7096 ft 232 kts 292°
2026-04-15 12:33 25.11357 46.74544 6543 ft 233 kts 292°
2026-04-15 12:34 25.11966 46.72889 6082 ft 231 kts 292°
2026-04-15 12:34 25.12573 46.71240 6008 ft 233 kts 292°
2026-04-15 12:34 25.13183 46.69577 6013 ft 234 kts 292°
2026-04-15 12:34 25.13791 46.67915 6001 ft 232 kts 292°
2026-04-15 12:35 25.14388 46.66278 5524 ft 229 kts 292°
2026-04-15 12:35 25.14992 46.64626 5105 ft 232 kts 291°
2026-04-15 12:35 25.15571 46.63042 4799 ft 231 kts 291°
2026-04-15 12:35 25.16184 46.61367 4442 ft 230 kts 291°
2026-04-15 12:36 25.16705 46.59708 4101 ft 228 kts 278°
2026-04-15 12:36 25.16501 46.58036 3995 ft 215 kts 245°
2026-04-15 12:36 25.15620 46.56825 4029 ft 193 kts 216°
2026-04-15 12:36 25.14471 46.56280 4014 ft 173 kts 187°
2026-04-15 12:37 25.13312 46.56338 4008 ft 164 kts 163°
2026-04-15 12:37 25.12308 46.56892 4008 ft 162 kts 141°
2026-04-15 12:37 25.11593 46.57842 4006 ft 163 kts 118°
2026-04-15 12:37 25.11268 46.59033 4012 ft 163 kts 99°
2026-04-15 12:38 25.11039 46.60261 4008 ft 163 kts 108°
2026-04-15 12:38 25.10561 46.61390 4013 ft 163 kts 123°
2026-04-15 12:38 25.09831 46.62340 4005 ft 163 kts 142°
2026-04-15 12:38 25.08896 46.63040 4009 ft 162 kts 148°
2026-04-15 12:39 25.07945 46.63678 4014 ft 162 kts 149°
2026-04-15 12:39 25.06972 46.64309 3992 ft 162 kts 150°
2026-04-15 12:39 25.06014 46.64921 3901 ft 157 kts 150°
2026-04-15 12:39 25.05070 46.65522 3721 ft 156 kts 150°
2026-04-15 12:40 25.04133 46.66116 3527 ft 155 kts 150°
2026-04-15 12:40 25.03204 46.66705 3332 ft 154 kts 150°
2026-04-15 12:40 25.02271 46.67296 3134 ft 154 kts 150°
2026-04-15 12:40 25.01344 46.67884 2929 ft 154 kts 149°
2026-04-15 12:41 25.00417 46.68470 2715 ft 154 kts 149°
2026-04-15 12:41 24.99487 46.69059 2504 ft 154 kts 147°
2026-04-15 12:41 24.98566 46.69642 2303 ft 152 kts 147°
2026-04-15 12:41 24.97656 46.70219 2085 ft 151 kts 147°
2026-04-15 12:42 24.96802 46.70753 2039 ft 128 kts 148°
2026-04-15 12:42 24.96268 46.71099 2037 ft 34 kts 151°
2026-04-15 12:42 24.96062 46.71229 2034 ft 38 kts 149°
2026-04-15 12:42 24.95806 46.71384 2037 ft 34 kts 160°
2026-04-15 12:43 24.95639 46.71426 2034 ft 18 kts 174°
2026-04-15 12:43 24.95546 46.71412 2031 ft 1 kts 200°
2026-04-15 12:43 24.95543 46.71410 2031 ft 0 kts 201°
2026-04-15 12:46 24.95520 46.71397 2031 ft 5 kts 211°
2026-04-15 12:46 24.95508 46.71388 2031 ft 0 kts 215°
2026-04-15 12:47 24.95478 46.71365 2039 ft 12 kts 216°
2026-04-15 12:47 24.95444 46.71311 2035 ft 6 kts 232°
2026-04-15 12:47 24.95405 46.71303 2038 ft 6 kts 167°
2026-04-15 12:48 24.95370 46.71322 2034 ft 6 kts 148°
2026-04-15 12:48 24.95350 46.71336 2037 ft 0 kts 148°
2026-04-15 12:48 24.95349 46.71336 2037 ft 0 kts 148°
2026-04-15 12:49 24.95348 46.71337 2037 ft 0 kts 149°
2026-04-15 12:49 24.95346 46.71338 2032 ft 1 kts 149°
2026-04-15 12:49 24.95341 46.71342 2032 ft 1 kts 149°
2026-04-15 12:49 24.95332 46.71347 2036 ft 2 kts 149°
2026-04-15 12:50 24.95321 46.71355 2036 ft 2 kts 149°
2026-04-15 12:50 24.95308 46.71364 2032 ft 2 kts 148°
2026-04-15 12:50 24.95303 46.71367 2038 ft 0 kts 150°
2026-04-15 12:54 24.95302 46.71367 2032 ft 0 kts 150°
2026-04-15 12:54 24.95298 46.71369 2035 ft 1 kts 150°
2026-04-15 12:55 24.95293 46.71373 2033 ft 3 kts 150°
2026-04-15 12:55 24.95236 46.71400 2036 ft 11 kts 158°
2026-04-15 12:55 24.95134 46.71470 2037 ft 24 kts 147°
2026-04-15 12:55 24.94906 46.71617 2036 ft 27 kts 150°
2026-04-15 12:56 24.94788 46.71624 2035 ft 11 kts 227°
2026-04-15 12:56 24.94782 46.71616 2038 ft 0 kts 231°
2026-04-15 12:56 24.94749 46.71555 2038 ft 17 kts 240°
2026-04-15 12:57 24.94683 46.71429 2038 ft 20 kts 240°
2026-04-15 12:57 24.94623 46.71317 2036 ft 12 kts 239°
2026-04-15 12:57 24.94617 46.71306 2037 ft 2 kts 239°
2026-04-15 12:57 24.94572 46.71271 2033 ft 11 kts 188°
2026-04-15 12:58 24.94496 46.71306 2032 ft 13 kts 150°
2026-04-15 12:58 24.94401 46.71367 2033 ft 20 kts 150°
2026-04-15 12:58 24.94280 46.71444 2033 ft 16 kts 150°
2026-04-15 12:58 24.94261 46.71456 2033 ft 1 kts 150°
2026-04-15 12:59 24.94162 46.71377 2033 ft 12 kts 221°
2026-04-15 12:59 24.94158 46.71373 2033 ft 0 kts 221°